Location: Bittkow
(50.3000°N, 19.0000°E)
Time: 12:48:43
(UTC+00:00)

Meteor 2-6 Rocket - Pass Details

Date: 19 September 2020
Orbit: 807 x 914 km, 81.3° (Epoch: 23 October)

Event Time Altitude Azimuth Distance (km) Brightness Sun altitude
Exits shadow 02:59:50 - 196° (SSW) 3,162 6.8 -14.3°
Reaches altitude 10° 03:01:36 10° 197° (SSW) 2,479 6.3 -14.0°
Maximum altitude 03:07:15 76° 283° (WNW) 903 4.2 -13.2°
Drops below altitude 10° 03:13:07 10° 10° (N) 2,569 7.1 -12.3°
Sets 03:15:37 0° 12° (NNE) 3,526 7.8 -11.9°
